Weather History for Anoka County, MN

Change the Weather History Date:

Sunday, December 1, 2013

  Actual Average Record
Temperature  
Mean Temperature 26 °F -  
Max Temperature 35 °F 33 °F 66 °F (1998)
Min Temperature 17 °F 20 °F 5 °F (2006)
Degree Days  
Heating Degree Days 39    
Moisture  
Dew Point 22 °F    
Average Humidity 90    
Maximum Humidity 100    
Minimum Humidity 65    
Precipitation  
Precipitation 0.00 in - - ()
Sea Level Pressure  
Sea Level Pressure 30.09 in    
Wind  
Wind Speed 2 mph (WNW)    
Max Wind Speed 6 mph    
Max Gust Speed -    
Visibility 7 miles    
Events Fog    
Averages and records for this station are not official NWS values.
T = Trace of Precipitation, MM = Missing Value Source: NWS Daily Summary

Daily Weather History Graph

Daily Weather History Graph

Search for Another Location

Airport:

Trip Planner

Search our weather history database for the weather conditions in past years. The results will help you decide how hot, cold, wet, or windy it might be!

Date:

Astronomy

Dec. 01, 2013 Rise Set
Actual Time 7:31 AM CST 4:32 PM CST
Civil Twilight 6:58 AM CST 5:05 PM CST
Nautical Twilight 6:21 AM CST 5:42 PM CST
Astronomical Twilight 5:46 AM CST 6:17 PM CST
Moon 5:46 AM CST 3:45 PM CST
Length of Visible Light 10h 07m
Length of Day
9h 00m
Waning Crescent, 2% of the Moon is Illuminated
Dec 1
Waning Crescent
Dec 2
New
Dec 9
First Quarter
Dec 17
Full
Dec 25
Last Quarter

Hourly Weather History & Observations

Time (CST) Temp. Windchill Dew Point Humidity Pressure Visibility Wind Dir Wind Speed Gust Speed Precip Events Conditions
12:14 AM 26.6 °F 22.6 °F 23.0 °F 86% 30.16 in 10.0 mi NNW 3.5 mph - N/A   Clear
12:34 AM 26.6 °F 22.6 °F 23.0 °F 86% 30.16 in 10.0 mi NNW 3.5 mph - N/A   Clear
12:53 AM 26.6 °F 22.6 °F 23.0 °F 86% 30.15 in 10.0 mi NNW 3.5 mph - N/A   Clear
1:14 AM 26.6 °F 22.6 °F 23.0 °F 86% 30.15 in 10.0 mi NNW 3.5 mph - N/A   Clear
1:34 AM 24.8 °F 20.5 °F 21.2 °F 86% 30.16 in 10.0 mi NW 3.5 mph - N/A   Clear
1:53 AM 24.8 °F 19.1 °F 21.2 °F 86% 30.16 in 10.0 mi NW 4.6 mph - N/A   Clear
2:14 AM 24.8 °F - 21.2 °F 86% 30.17 in 10.0 mi Calm Calm - N/A   Clear
2:33 AM 24.8 °F - 23.0 °F 93% 30.16 in 10.0 mi Calm Calm - N/A   Clear
2:54 AM 23.0 °F - 21.2 °F 93% 30.16 in 7.0 mi Calm Calm - N/A   Clear
3:14 AM 21.2 °F - 21.2 °F 100% 30.16 in 5.0 mi Calm Calm - N/A   Clear
3:34 AM 21.2 °F - 21.2 °F 100% 30.16 in 7.0 mi Calm Calm - N/A   Clear
3:54 AM 19.4 °F - 17.6 °F 93% 30.16 in 5.0 mi Calm Calm - N/A   Clear
4:14 AM 19.4 °F - 19.4 °F 100% 30.16 in 5.0 mi Calm Calm - N/A   Clear
4:34 AM 19.4 °F - 17.6 °F 93% 30.16 in 3.0 mi Calm Calm - N/A   Scattered Clouds
4:54 AM 19.4 °F - 17.6 °F 93% 30.17 in 7.0 mi Calm Calm - N/A   Clear
5:14 AM 17.6 °F - 15.8 °F 93% 30.17 in 5.0 mi Calm Calm - N/A   Clear
5:34 AM 19.4 °F - 19.4 °F 100% 30.17 in 5.0 mi Calm Calm - N/A   Clear
5:54 AM 19.4 °F - 17.6 °F 93% 30.16 in 4.0 mi Calm Calm - N/A   Clear
6:14 AM 19.4 °F - 17.6 °F 93% 30.17 in 3.0 mi Calm Calm - N/A   Clear
6:34 AM 19.4 °F - 17.6 °F 93% 30.17 in 1.2 mi Calm Calm - N/A   Mist
6:54 AM 17.6 °F - 17.6 °F 100% 30.17 in 0.5 mi Calm Calm - N/A Fog Light Freezing Fog
7:45 AM 17.6 °F - 15.8 °F 93% 30.18 in 5.0 mi Calm Calm - N/A   Haze
8:45 AM 19.4 °F - 19.4 °F 100% 30.17 in 5.0 mi Calm Calm - N/A   Clear
9:45 AM 24.8 °F - 24.8 °F 100% 30.17 in 5.0 mi Calm Calm - N/A   Clear
10:45 AM 30.2 °F - 24.8 °F 80% 30.16 in 7.0 mi Calm Calm - N/A   Mostly Cloudy
11:45 AM 33.8 °F - 26.6 °F 75% 30.13 in 10.0 mi North - - N/A   Scattered Clouds
12:45 PM 35.6 °F - 24.8 °F 65% 30.10 in 10.0 mi Calm Calm - N/A   Mostly Cloudy
2:45 PM 35.6 °F 30.7 °F 24.8 °F 65% 30.05 in 10.0 mi WSW 5.8 mph - N/A   Scattered Clouds
3:45 PM 33.8 °F 28.6 °F 24.8 °F 70% 30.04 in 10.0 mi WSW 5.8 mph - N/A   Mostly Cloudy
4:45 PM 32.0 °F 28.7 °F 24.8 °F 75% 30.03 in 10.0 mi WSW 3.5 mph - N/A   Scattered Clouds
5:45 PM 30.2 °F 26.7 °F 24.8 °F 80% 30.02 in 10.0 mi WSW 3.5 mph - N/A   Mostly Cloudy
6:45 PM 28.4 °F - 24.8 °F 86% 30.01 in 10.0 mi North - - N/A   Mostly Cloudy
7:45 PM 26.6 °F - 24.8 °F 93% 29.98 in 10.0 mi Calm Calm - N/A   Mostly Cloudy
8:45 PM 24.8 °F - 23.0 °F 93% 29.96 in - Calm Calm - N/A   Scattered Clouds
9:14 PM 24.8 °F - 24.8 °F 100% 29.95 in 5.0 mi Calm Calm - N/A   Clear
9:33 PM 24.8 °F - 21.2 °F 86% 29.95 in 5.0 mi Calm Calm - N/A   Clear
9:54 PM 23.0 °F 18.4 °F 21.2 °F 93% 29.94 in 5.0 mi ESE 3.5 mph - N/A   Scattered Clouds
10:14 PM 24.8 °F - 23.0 °F 93% 29.94 in 5.0 mi Calm Calm - N/A   Scattered Clouds
10:33 PM 24.8 °F - 23.0 °F 93% 29.93 in 7.0 mi Calm Calm - N/A   Scattered Clouds
10:54 PM 26.6 °F - 24.8 °F 93% 29.93 in 7.0 mi Calm Calm - N/A   Scattered Clouds
11:14 PM 26.6 °F - 24.8 °F 93% 29.93 in 7.0 mi Calm Calm - N/A   Mostly Cloudy
11:33 PM 26.6 °F 21.2 °F 24.8 °F 93% 29.92 in 7.0 mi East 4.6 mph - N/A   Overcast
11:54 PM 26.6 °F - 24.8 °F 93% 29.91 in 7.0 mi Calm Calm - N/A   Mostly Cloudy